Location: Casco Millpond
(44.5581°N, 87.6111°W)
Time: 22:41:45
(UTC+00:00)

MOS 1 Rocket - Pass Details

Date: 16 January 2026
Orbit: 608 x 815 km, 97.4° (Epoch: 11 February)

Event Time Altitude Azimuth Distance (km) Brightness Sun altitude
Rises 12:12:05 0° 14° (NNE) 3,028 6.6 -12.5°
Reaches altitude 10° 12:14:23 10° 16° (NNE) 2,080 5.7 -12.1°
Maximum altitude 12:18:53 73° 100° (E) 667 3.4 -11.3°
Drops below altitude 10° 12:23:10 10° 187° (S) 1,977 5.8 -10.6°
Sets 12:25:18 0° 189° (S) 2,865 6.6 -10.2°
